Location: Jonesport
(44.5330°N, 67.5990°W)
Time: 22:02:45
(UTC-04:00)

Iridium 35 - Visible Passes

Search period start: 29 July 2016 00:00
Search period end: 08 August 2016 00:00
Orbit: 776 x 779 km, 86.4° (Epoch: 29 July)

Date Brightness Start Highest point End Pass type
(mag) Time Alt. Az. Time Alt. Az. Time Alt. Az.
29 Jul 6.1 20:52:56 10° NNE 20:57:21 27° ENE 21:01:00 13° SE visible
29 Jul 6.2 22:33:21 10° NNW 22:38:10 38° W 22:41:30 18° SW visible
30 Jul 5.2 21:59:33 10° N 22:04:46 69° W 22:08:14 21° SSW visible
31 Jul 5.0 21:26:02 10° N 21:31:14 67° E 21:35:00 19° SSE visible
31 Jul 7.5 23:08:18 10° NW 23:11:20 16° WNW 23:14:22 10° WSW visible
01 Aug 5.7 20:52:44 10° NNE 20:57:35 37° E 21:01:46 13° SE visible
01 Aug 6.8 22:33:47 10° NNW 22:38:08 27° W 22:42:15 11° SW visible
02 Aug 6.4 20:19:49 10° NNE 20:23:49 22° ENE 20:27:47 10° SE visible
02 Aug 5.8 21:59:48 10° NNW 22:04:49 48° W 22:09:03 14° SSW visible
03 Aug 5.0 21:26:07 10° N 21:31:22 87° W 21:35:52 14° S visible
03 Aug 7.8 23:09:55 10° WNW 23:11:11 11° WNW 23:12:28 10° W visible
04 Aug 5.2 20:52:40 10° N 20:57:47 53° E 21:02:42 11° SSE visible
04 Aug 7.3 22:34:23 10° NW 22:38:04 20° W 22:41:44 10° SW visible
05 Aug 6.0 20:19:30 10° NNE 20:24:05 30° ENE 20:28:39 10° SE visible
05 Aug 6.5 22:00:08 10° NNW 22:04:49 34° W 22:09:28 10° SSW visible
06 Aug 5.5 21:26:17 10° N 21:31:26 61° W 21:36:34 10° SSW visible
07 Aug 5.0 20:52:41 10° N 20:57:56 76° E 21:03:09 10° S visible
07 Aug 7.7 22:35:21 10° NW 22:37:57 14° WNW 22:40:33 10° WSW visible
